Time,TemperatureF,DewpointF,PressureIn,WindDirection,WindDirectionDegrees,WindSpeedMPH,WindSpeedGustMPH,Humidity,HourlyPrecipIn,Conditions,Clouds,dailyrainin,SoftwareType,DateUTC
2013-08-23 00:22:00,66.0,56.0,30.20,NE,51,2.0,4.0,69,0.00,,,2.82,,2013-08-23 05:22:00,
2013-08-23 00:52:00,66.0,55.0,30.20,NE,53,2.0,3.0,67,0.00,,,2.82,,2013-08-23 05:52:00,
2013-08-23 01:22:00,65.0,54.0,30.20,NE,53,2.0,3.0,68,0.00,,,2.82,,2013-08-23 06:22:00,
2013-08-23 01:52:00,64.0,55.0,30.19,NE,56,3.0,5.0,72,0.00,,,2.82,,2013-08-23 06:52:00,
2013-08-23 02:22:00,63.0,55.0,30.20,ENE,76,2.0,5.0,75,0.00,,,2.82,,2013-08-23 07:22:00,
2013-08-23 02:52:00,62.0,55.0,30.19,East,88,2.0,4.0,79,0.00,,,2.82,,2013-08-23 07:52:00,
2013-08-23 03:22:00,62.0,56.0,30.20,ENE,69,1.0,5.0,82,0.00,,,2.82,,2013-08-23 08:22:00,
2013-08-23 03:52:00,61.0,56.0,30.20,ENE,63,3.0,5.0,85,0.00,,,2.82,,2013-08-23 08:52:00,
2013-08-23 04:21:00,61.0,57.0,30.20,East,90,2.0,7.0,87,0.00,,,2.82,,2013-08-23 09:21:00,
2013-08-23 04:53:00,61.0,58.0,30.21,NE,53,2.0,4.0,90,0.00,,,2.82,,2013-08-23 09:53:00,
2013-08-23 05:22:00,61.0,58.0,30.21,NE,47,2.0,4.0,91,0.00,,,2.82,,2013-08-23 10:22:00,
2013-08-23 05:53:00,60.0,58.0,30.21,ENE,60,2.0,4.0,92,0.00,,,2.82,,2013-08-23 10:53:00,
2013-08-23 06:22:00,61.0,59.0,30.23,ENE,59,2.0,4.0,92,0.00,,,2.82,,2013-08-23 11:22:00,
2013-08-23 06:53:00,60.0,58.0,30.24,NE,40,2.0,5.0,92,0.00,,,2.82,,2013-08-23 11:53:00,
2013-08-23 07:22:00,61.0,58.0,30.24,ENE,69,2.0,5.0,91,0.00,,,2.82,,2013-08-23 12:22:00,
2013-08-23 07:52:00,63.0,59.0,30.25,NE,48,2.0,3.0,87,0.00,,,2.82,,2013-08-23 12:52:00,
2013-08-23 08:22:00,66.0,61.0,30.25,NE,55,2.0,5.0,85,0.00,,,2.82,,2013-08-23 13:22:00,
2013-08-23 08:52:00,68.0,63.0,30.26,ESE,106,1.0,7.0,84,0.00,,,2.82,,2013-08-23 13:52:00,
2013-08-23 09:21:00,70.0,63.0,30.26,ESE,109,3.0,7.0,78,0.00,,,2.82,,2013-08-23 14:21:00,
2013-08-23 09:52:00,72.0,64.0,30.26,NE,51,1.0,5.0,76,0.00,,,2.82,,2013-08-23 14:52:00,
2013-08-23 10:22:00,73.0,62.0,30.26,ESE,103,1.0,7.0,68,0.00,,,2.82,,2013-08-23 15:22:00,
2013-08-23 10:54:00,74.0,61.0,30.27,NE,54,3.0,8.0,63,0.00,,,2.82,,2013-08-23 15:54:00,
2013-08-23 11:24:00,75.0,59.0,30.26,ENE,59,4.0,9.0,58,0.00,,,0.93,,2013-08-23 16:24:00,
2013-08-23 11:53:00,76.0,57.0,30.26,ESE,107,3.0,11.0,51,0.00,,,0.93,,2013-08-23 16:53:00,
2013-08-23 12:23:00,76.0,56.0,30.26,East,89,4.0,13.0,50,0.00,,,0.31,,2013-08-23 17:23:00,
2013-08-23 12:53:00,77.0,56.0,30.25,ENE,77,2.0,11.0,49,0.00,,,0.31,,2013-08-23 17:53:00,
2013-08-23 13:22:00,76.0,55.0,30.25,East,94,6.0,11.0,48,0.00,,,0.00,,2013-08-23 18:22:00,
2013-08-23 13:52:00,76.0,55.0,30.25,ENE,74,4.0,13.0,49,0.00,,,0.00,,2013-08-23 18:52:00,
2013-08-23 14:22:00,77.0,56.0,30.24,WSW,242,3.0,8.0,49,0.00,,,0.00,,2013-08-23 19:22:00,
2013-08-23 14:42:00,77.0,55.0,30.24,East,83,1.0,10.0,46,0.00,,,0.00,,2013-08-23 19:42:00,
2013-08-23 14:52:00,77.0,56.0,30.24,ESE,115,3.0,10.0,48,0.00,,,0.00,,2013-08-23 19:52:00,
2013-08-23 15:22:00,77.0,54.0,30.23,ESE,102,4.0,10.0,45,0.00,,,0.00,,2013-08-23 20:22:00,
2013-08-23 15:52:00,77.0,55.0,30.23,ENE,78,1.0,5.0,47,0.00,,,0.00,,2013-08-23 20:52:00,
2013-08-23 16:22:00,76.0,57.0,30.23,SE,126,4.0,8.0,51,0.00,,,0.00,,2013-08-23 21:22:00,
2013-08-23 16:54:00,76.0,58.0,30.23,East,91,2.0,9.0,53,0.00,,,0.00,,2013-08-23 21:54:00,
2013-08-23 17:24:00,76.0,59.0,30.23,ESE,117,3.0,10.0,56,0.00,,,0.00,,2013-08-23 22:24:00,
2013-08-23 17:53:00,75.0,60.0,30.23,East,98,2.0,8.0,59,0.00,,,0.00,,2013-08-23 22:53:00,
2013-08-23 18:22:00,74.0,60.0,30.23,SSE,149,3.0,10.0,61,0.00,,,0.00,,2013-08-23 23:22:00,
2013-08-23 18:54:00,73.0,61.0,30.22,East,92,2.0,6.0,66,0.00,,,0.00,,2013-08-23 23:54:00,
2013-08-23 19:21:00,72.0,62.0,30.22,East,88,2.0,8.0,70,0.00,,,0.00,,2013-08-24 00:21:00,
2013-08-23 19:53:00,71.0,62.0,30.23,ESE,114,1.0,5.0,74,0.00,,,0.00,,2013-08-24 00:53:00,
2013-08-23 20:22:00,69.0,61.0,30.23,ESE,119,2.0,4.0,76,0.00,,,0.00,,2013-08-24 01:22:00,
2013-08-23 20:42:00,69.0,61.0,30.24,ESE,123,1.0,4.0,76,0.00,,,0.00,,2013-08-24 01:42:00,
2013-08-23 20:53:00,68.0,61.0,30.24,ESE,115,0.0,5.0,77,0.00,,,0.00,,2013-08-24 01:53:00,
2013-08-23 21:12:00,67.0,60.0,30.24,ESE,111,1.0,3.0,78,0.00,,,0.00,,2013-08-24 02:12:00,
2013-08-23 21:22:00,67.0,61.0,30.25,SE,124,1.0,3.0,80,0.00,,,0.00,,2013-08-24 02:22:00,
2013-08-23 21:42:00,66.0,60.0,30.25,SE,146,0.0,3.0,82,0.00,,,0.00,,2013-08-24 02:42:00,
2013-08-23 21:52:00,66.0,61.0,30.25,SE,144,0.0,3.0,83,0.00,,,0.00,,2013-08-24 02:52:00,
2013-08-23 22:22:00,65.0,61.0,30.26,SE,144,0.0,2.0,86,0.00,,,0.00,,2013-08-24 03:22:00,
2013-08-23 22:55:00,65.0,61.0,30.26,SE,144,0.0,2.0,86,0.00,,,0.00,,2013-08-24 03:55:00,
2013-08-23 23:24:00,65.0,61.0,30.26,SE,145,0.0,1.0,86,0.00,,,0.00,,2013-08-24 04:24:00,
2013-08-23 23:44:00,65.0,61.0,30.26,SE,145,1.0,3.0,86,0.00,,,0.00,,2013-08-24 04:44:00,
2013-08-23 23:53:00,65.0,61.0,30.26,SE,144,0.0,2.0,86,0.00,,,0.00,,2013-08-24 04:53:00,